DW6399 Weather Reports


time (UTC)temp
C
wind
direction
speed
KPH
gust
KPH
rain 1hr
cm
rain 24hr
cm
rain mn
cm
humidity
%
barometer
mb
20260901064504 15 189 1.6 4.8 0.00 0.03 0.00 93 1002.4
20260901063604 15 183 1.6 8.0 0.00 0.03 0.00 94 1002.4
20260901062704 15 206 1.6 4.8 0.00 0.03 0.00 94 1002.4
20260901061804 15 238 1.6 4.8 0.00 0.03 0.00 94 1002.4
20260901060925 15 228 1.6 8.0 0.00 0.03 0.00 95 1002.3
20260901060004 15 200 1.6 8.0 0.00 0.03 0.00 95 1002.3
20260901055404 15 188 1.6 6.4 0.00 0.03 0.00 95 1002.3
20260901054504 15 192 1.6 4.8 0.00 0.03 0.00 96 1002.3
20260901053625 15 192 0.0 4.8 0.00 0.03 0.00 96 1002.1
20260901052704 15 208 1.6 6.4 0.00 0.03 0.00 96 1002.1
20260901051804 15 186 1.6 8.0 0.00 0.03 0.00 96 1002.1
20260901050904 15 275 1.6 6.4 0.00 0.03 0.00 96 1002.0
20260901050025 15 287 1.6 8.0 0.00 0.03 0.00 96 1002.0
20260901045404 15 284 1.6 6.4 0.00 0.03 0.00 96 1002.0
20260901044506 15 204 0.0 6.4 0.00 0.03 0.00 97 1001.9
20260901043604 15 191 0.0 3.2 0.00 0.03 0.00 97 1001.8
20260901042704 15 191 1.6 6.4 0.00 0.03 0.00 97 1002.0
20260901041804 15 189 1.6 6.4 0.00 0.03 0.00 97 1002.0
20260901040904 15 199 1.6 6.4 0.00 0.03 0.00 96 1001.9
20260901040004 15 242 1.6 4.8 0.00 0.03 0.00 97 1002.0
20260901035404 15 267 0.0 3.2 0.00 0.03 0.00 96 1002.0
20260901034504 15 279 1.6 6.4 0.00 0.03 0.00 97 1002.0
20260901033604 15 283 1.6 6.4 0.00 0.03 0.00 97 1002.0
20260901032704 15 293 1.6 6.4 0.00 0.03 0.00 97 1002.0
20260901031804 15 166 1.6 6.4 0.00 0.03 0.00 97 1002.1
20260901030904 15 155 1.6 8.0 0.00 0.03 0.00 97 1002.0
20260901030004 15 155 0.0 4.8 0.00 0.03 0.00 97 1002.0
20260901025404 15 155 0.0 3.2 0.00 0.03 0.00 97 1002.0
20260901024504 15 155 1.6 3.2 0.00 0.03 0.00 96 1002.0
20260901023604 15 155 1.6 4.8 0.00 0.03 0.00 97 1001.9
20260901022704 15 155 0.0 3.2 0.00 0.03 0.00 97 1001.8
20260901021804 15 155 1.6 9.7 0.00 0.03 0.00 97 1001.8
20260901020925 15 155 0.0 4.8 0.00 0.03 0.00 96 1001.8
20260901020004 15 155 0.0 4.8 0.00 0.03 0.00 96 1001.8
20260901015404 15 155 1.6 8.0 0.00 0.03 0.00 96 1001.8
20260901014504 15 155 3.2 8.0 0.00 0.03 0.00 96 1001.8
20260901013604 15 155 1.6 4.8 0.00 0.03 0.00 96 1001.8
20260901012704 15 155 3.2 4.8 0.00 0.03 0.00 96 1001.8
20260901011804 15 155 1.6 4.8 0.00 0.03 0.00 96 1001.8
20260901010904 15 155 1.6 3.2 0.00 0.03 0.00 96 1001.8
20260901010004 15 155 1.6 4.8 0.00 0.03 0.00 96 1001.9
20260901005404 15 155 1.6 3.2 0.00 0.03 0.00 96 1001.9
20260901004504 15 155 3.2 8.0 0.00 0.03 0.00 96 1001.9
20260901003604 15 155 3.2 9.7 0.00 0.05 0.00 96 1002.0
20260901002704 15 153 3.2 9.7 0.00 0.05 0.00 96 1002.0
20260901001804 15 152 3.2 8.0 0.00 0.05 0.00 96 1002.0
20260901000904 15 151 3.2 8.0 0.00 0.05 0.00 96 1002.1
20260901000004 15 150 1.6 6.4 0.00 0.05 0.00 96 1002.1
20260831235404 15 150 1.6 3.2 0.00 0.05 0.00 96 1002.1
20260831234504 15 150 1.6 4.8 0.00 0.05 0.00 96 1002.2
20260831233604 15 150 1.6 4.8 0.00 0.05 0.00 96 1002.2
20260831232705 15 150 1.6 4.8 0.00 0.05 0.00 96 1002.1
20260831231804 15 149 0.0 1.6 0.00 0.05 0.00 96 1002.2
20260831230904 15 149 0.0 1.6 0.00 0.05 0.00 96 1002.2
20260831230004 15 143 1.6 4.8 0.00 0.05 0.00 96 1002.2
20260831225404 15 133 1.6 4.8 0.00 0.05 0.00 96 1002.2
20260831224504 15 129 1.6 4.8 0.00 0.05 0.00 96 1002.2
20260831223604 15 129 1.6 3.2 0.00 0.05 0.00 96 1002.3
20260831222704 15 129 1.6 3.2 0.00 0.05 0.00 96 1002.2
20260831221804 15 144 1.6 4.8 0.00 0.05 0.00 96 1002.3
20260831220925 15 149 1.6 4.8 0.00 0.05 0.00 96 1002.3
20260831220004 14 149 3.2 4.8 0.00 0.05 0.00 96 1002.4
20260831215425 14 149 1.6 3.2 0.00 0.05 0.00 95 1002.4
20260831214504 14 149 1.6 3.2 0.00 0.05 0.00 95 1002.3
20260831213604 15 149 1.6 3.2 0.00 0.05 0.00 95 1002.3
20260831212704 15 149 0.0 3.2 0.00 0.05 0.00 95 1002.3
20260831211804 15 149 1.6 3.2 0.00 0.05 0.00 95 1002.3
20260831210904 15 149 1.6 3.2 0.00 0.05 0.00 95 1002.3
20260831210026 15 149 1.6 3.2 0.00 0.05 0.00 95 1002.4
20260831205404 15 149 1.6 4.8 0.00 0.05 0.05 95 1002.4
20260831204504 15 128 3.2 8.0 0.00 0.05 0.05 96 1002.4
20260831203604 15 135 3.2 6.4 0.00 0.05 0.05 96 1002.5
20260831202704 15 152 3.2 8.0 0.00 0.05 0.05 96 1002.4
20260831201804 16 139 3.2 6.4 0.00 0.05 0.05 96 1002.5
20260831200904 16 120 1.6 4.8 0.00 0.05 0.05 95 1002.4
20260831200004 16 123 3.2 4.8 0.00 0.05 0.05 95 1002.4
20260831195404 16 118 1.6 4.8 0.00 0.05 0.05 95 1002.4
20260831194504 16 121 1.6 4.8 0.00 0.05 0.05 95 1002.4
20260831193604 16 121 1.6 4.8 0.00 0.05 0.05 95 1002.5
20260831192704 16 103 1.6 4.8 0.00 0.08 0.05 95 1002.4
20260831191825 16 105 1.6 4.8 0.00 0.18 0.05 95 1002.5
20260831190904 16 105 1.6 4.8 0.00 0.20 0.05 95 1002.5
20260831190025 16 105 1.6 4.8 0.00 0.30 0.05 95 1002.4
20260831185404 16 105 1.6 4.8 0.00 0.33 0.05 95 1002.4
20260831184504 16 107 3.2 6.4 0.00 0.41 0.05 95 1002.4
20260831183604 15 124 1.6 6.4 0.00 0.43 0.05 95 1002.4
20260831182704 16 113 1.6 4.8 0.00 0.46 0.05 95 1002.3
20260831181804 16 128 1.6 4.8 0.00 0.46 0.05 94 1002.3
20260831180904 16 129 1.6 4.8 0.00 0.46 0.05 94 1002.4
20260831180004 16 119 3.2 4.8 0.00 0.46 0.05 94 1002.4
20260831175404 16 106 3.2 6.4 0.00 0.46 0.05 94 1002.4
20260831174504 16 120 3.2 9.7 0.00 0.46 0.05 94 1002.3
20260831173604 16 123 3.2 9.7 0.00 0.46 0.05 94 1002.4
20260831172704 16 124 4.8 11.3 0.00 0.46 0.05 94 1002.5
20260831171804 16 126 4.8 9.7 0.00 0.46 0.05 94 1002.5
20260831170904 16 124 4.8 9.7 0.00 0.46 0.05 93 1002.4
20260831170004 16 119 3.2 9.7 0.00 0.46 0.05 93 1002.5
20260831165404 16 127 3.2 8.0 0.00 0.46 0.05 93 1002.5
20260831164504 16 124 4.8 9.7 0.00 0.46 0.05 93 1002.4
20260831163625 16 129 3.2 9.7 0.00 0.46 0.05 93 1002.4
20260831162704 16 143 3.2 6.4 0.00 0.46 0.05 92 1002.4
20260831161804 16 120 4.8 11.3 0.00 0.46 0.05 92 1002.4
20260831160904 16 111 4.8 12.9 0.00 0.46 0.05 93 1002.5
20260831160004 16 118 4.8 9.7 0.00 0.46 0.05 93 1002.5
20260831155404 16 122 3.2 8.0 0.00 0.46 0.05 92 1002.6
20260831154504 16 120 4.8 9.7 0.00 0.46 0.05 92 1002.6
20260831153604 16 124 3.2 9.7 0.00 0.46 0.05 92 1002.6
20260831152725 16 128 3.2 9.7 0.00 0.46 0.05 92 1002.6
20260831151804 16 144 6.4 11.3 0.00 0.46 0.05 92 1002.6
20260831150904 16 139 6.4 12.9 0.00 0.46 0.05 91 1002.7
20260831150025 17 133 6.4 12.9 0.00 0.46 0.05 91 1002.7
20260831145425 17 130 6.4 17.7 0.00 0.46 0.05 91 1002.7
20260831144525 17 143 4.8 14.5 0.00 0.46 0.05 91 1002.7
20260831143604 17 142 3.2 8.0 0.00 0.46 0.05 92 1002.8
20260831142704 17 150 4.8 12.9 0.00 0.46 0.05 92 1002.8
20260831141804 17 135 4.8 9.7 0.00 0.46 0.05 92 1002.8
20260831140904 17 117 4.8 11.3 0.00 0.46 0.05 92 1002.8
20260831140004 16 138 3.2 8.0 0.00 0.46 0.05 93 1002.8
20260831135404 16 153 4.8 8.0 0.00 0.46 0.05 93 1002.9
20260831134504 16 159 3.2 6.4 0.00 0.46 0.05 93 1002.9
20260831133604 16 158 4.8 11.3 0.00 0.46 0.05 93 1002.9
20260831132725 16 144 8.0 14.5 0.00 0.46 0.05 93 1002.9
20260831131804 16 150 6.4 14.5 0.00 0.46 0.05 93 1003.0
20260831130904 16 142 4.8 11.3 0.00 0.46 0.05 94 1003.0
20260831130004 16 134 4.8 11.3 0.00 0.46 0.05 94 1003.1
20260831125404 16 132 4.8 11.3 0.00 0.46 0.05 95 1003.1
20260831124504 16 127 3.2 9.7 0.00 0.46 0.05 95 1003.2
20260831123604 16 131 4.8 11.3 0.00 0.46 0.05 95 1003.2
20260831122704 16 135 4.8 9.7 0.00 0.46 0.05 95 1003.2
20260831121804 16 142 4.8 9.7 0.00 0.46 0.05 95 1003.3
20260831120904 16 130 4.8 9.7 0.00 0.46 0.05 95 1003.2
20260831120004 15 123 4.8 11.3 0.00 0.46 0.05 94 1003.2
20260831115425 16 125 4.8 11.3 0.00 0.46 0.05 94 1003.3
20260831114504 16 127 3.2 6.4 0.00 0.46 0.05 95 1003.3
20260831113604 15 126 4.8 8.0 0.00 0.46 0.05 94 1003.4
20260831112725 15 132 4.8 12.9 0.00 0.46 0.05 94 1003.4
20260831111825 15 130 6.4 12.9 0.03 0.46 0.05 94 1003.4
20260831110904 15 132 6.4 12.9 0.03 0.46 0.05 94 1003.4
20260831110004 15 131 8.0 14.5 0.03 0.46 0.05 94 1003.4
20260831105404 15 129 6.4 12.9 0.03 0.46 0.05 94 1003.5
20260831104504 15 108 3.2 4.8 0.03 0.46 0.05 94 1003.5
20260831103604 15 101 1.6 9.7 0.03 0.46 0.05 93 1003.5
20260831102704 15 112 3.2 9.7 0.03 0.46 0.05 93 1003.5
20260831101804 15 133 4.8 12.9 0.00 0.43 0.03 92 1003.6
20260831100904 15 151 11.3 19.3 0.00 0.43 0.03 92 1003.6
20260831100004 15 138 9.7 20.9 0.00 0.43 0.03 92 1003.6
20260831095404 16 143 6.4 17.7 0.00 0.43 0.03 92 1003.6
20260831094504 16 142 8.0 16.1 0.00 0.43 0.03 91 1003.5
20260831093604 16 145 9.7 22.5 0.00 0.43 0.03 91 1003.5
20260831092704 16 147 11.3 22.5 0.00 0.43 0.03 91 1003.5
20260831091804 16 153 8.0 16.1 0.00 0.43 0.03 92 1003.4
20260831090904 16 147 6.4 14.5 0.00 0.43 0.03 93 1003.5
20260831090004 15 137 4.8 12.9 0.00 0.46 0.03 93 1003.5
20260831085404 15 143 8.0 16.1 0.00 0.46 0.03 92 1003.4
20260831084504 15 141 9.7 19.3 0.00 0.46 0.03 92 1003.5
20260831083604 15 145 9.7 20.9 0.00 0.46 0.03 93 1003.6
20260831082704 15 147 8.0 16.1 0.00 0.46 0.03 94 1003.6
20260831081804 15 145 6.4 14.5 0.00 0.46 0.03 94 1003.6
20260831080904 15 147 8.0 14.5 0.00 0.46 0.03 94 1003.6
20260831080004 15 148 6.4 11.3 0.00 0.46 0.03 95 1003.6
20260831075404 15 153 6.4 12.9 0.00 0.46 0.03 95 1003.6
20260831074504 15 148 6.4 11.3 0.00 0.46 0.03 95 1003.7
20260831073604 15 150 4.8 11.3 0.00 0.46 0.03 96 1003.7
20260831072704 15 149 6.4 11.3 0.00 0.46 0.03 96 1003.8
20260831071825 15 152 8.0 12.9 0.00 0.46 0.03 96 1003.8
20260831070904 14 155 8.0 14.5 0.00 0.48 0.03 96 1003.8
20260831070004 14 149 6.4 12.9 0.00 0.48 0.03 96 1003.8
20260831065404 14 151 4.8 11.3 0.00 0.48 0.03 96 1003.8